Hourly Data Report for October 01, 2013

All times are specified in Local Standard Time (LST). Add 1 hour to adjust for Daylight Saving Time where and when it is observed.

QIKIQTARJUAQ A
NUNAVUT

67°32'48.000" N
64°01'54.000" W
5.50 m
2400577
YVM

Download Data

Hourly Data (October 2013)
Hourly Data Report for October 1, 2013
Temp Definition
°C
Dew Point Temp Definition
°C
Rel Hum Definition
%
Wind Dir Definition
10's deg

Wind Spd Definition
km/h
Visibility Definition
km
Stn Press Definition
kPa
Hmdx Definition


Wind Chill Definition


Weather Definition


TIME
00:00 Legend Double Dagger 0.8 -0.4 92 34 24 8.1 99.86     LegendNANA
01:00 Legend Double Dagger 0.6 -0.1 95 36 33 2.4 99.93     LegendNANA
02:00 Legend Double Dagger 0.5 -0.2 95 36 28 2.8 100.02     LegendNANA
03:00 Legend Double Dagger 0.5 -0.7 92 1 30 4.8 100.07     LegendNANA
04:00 Legend Double Dagger 0.4 -0.5 93 36 26 2.8 100.13     LegendNANA
05:00 Legend Double Dagger 0.6 -1.2 88 1 24 14.5 100.20     LegendNANA
06:00 Legend Double Dagger 0.2 -1.0 92 2 22 4.8 100.25     LegendNANA
07:00 Legend Double Dagger 0.2 -1.1 91 36 21 4.8 100.29     LegendNANA
08:00 Legend Double Dagger -0.1 -0.8 95 36 22 2.8 100.32   -6 LegendNANA
09:00 Legend Double Dagger 0.0 -0.9 94 36 22 4.8 100.35   -6 LegendNANA
10:00 Legend Double Dagger 0.0 -1.1 92 1 18 4.8 100.37   -5 LegendNANA
11:00 Legend Double Dagger -0.1 -1.2 92 36 15 4.0 100.40   -5 LegendNANA
12:00 Legend Double Dagger 0.1 -1.4 90 36 18 9.7 100.41     LegendNANA
13:00 Legend Double Dagger 0.2 -2.0 85 35 22 16.1 100.43     LegendNANA
14:00 Legend Double Dagger -0.2 -1.6 91 36 21 16.1 100.48   -6 LegendNANA
15:00 Legend Double Dagger -0.2 -1.4 92 36 11 12.9 100.53   -4 LegendNANA
16:00 Legend Double Dagger -0.1 -2.3 85 36 18 16.1 100.56   -5 LegendNANA
17:00 Legend Double Dagger -0.4 -2.2 88 2 13 16.1 100.60   -5 LegendNANA
18:00 Legend Double Dagger -0.6 -3.0 84 31 13 16.1 100.64   -5 LegendNANA
19:00 Legend Double Dagger -0.9 -3.5 82 32 13 16.1 100.67   -5 LegendNANA
20:00 Legend Double Dagger -0.9 -4.0 79 31 11 16.1 100.70   -5 LegendNANA
21:00 Legend Double Dagger -4.0 -5.4 90 11 8 16.1 100.70   -7 LegendNANA
22:00 Legend Double Dagger -4.9 -6.7 87 14 11 16.1 100.71   -9 LegendNANA
23:00 Legend Double Dagger -5.2 -7.4 85 13 5 16.1 100.71   -7 LegendNANA

Notes on Data Quality.

Legend

  • E = Estimated
  • M = Missing
  • NA = Not Available
  • ‡ = Partner data that is not subject to review by the National Climate Archives
Date modified: